Weather Roundup
Issued by NWS

Home | Current Version | Previous Version | Graphics & Text | Print | Product List | Glossary Off
Versions: 1 2 3 4 5 6 7 8 9 10 11 12 13 14 15 16 17 18 19 20 21 22 23 24 25 26 27 28 29 30 31 32 33 34 35 36 37 38 39 40 41 42 43 44 45 46 47 48 49 50

000
NZUS93 KARX 251059
HRRWXR

CURRENT HOURLY OBSERVATIONS ACROSS
MUCH OF THE UPPER MISSISSIPPI VALLEY
NATIONAL WEATHER SERVICE LA CROSSE WI
500 AM CST SUN JAN 25 2015


...SOUTHEAST MINNESOTA...


CITY           SKY/WX    TMP DP  RH WIND       PRES   REMARKS
ROCHESTER      CLOUDY    32  29  88 NE20      29.73R WCI  20
ROCHESTER/MAYO CLOUDY    32  27  83 N10G22    29.74R WCI  24
WINONA         CLOUDY    34  30  86 E9G17     29.78R WCI  26
AUSTIN         LGT SNOW  34  30  86 NE10      29.71R WCI  26
ALBERT LEA     LGT SNOW  34  34 100 NE13      29.72R WCI  25
DODGE CENTER   CLOUDY    30  28  93 NE13G22   29.74R WCI  20
PRESTON        LGT SNOW  32  30  93 NE12      29.72R WCI  23
OWATONNA       FLURRIES  32  28  86 NE10G16   29.76R WCI  24
FARIBAULT      CLOUDY    30  25  80 N14G22    29.79R WCI  20
$$

...ELSEWHERE IN MINNESOTA...


CITY           SKY/WX    TMP DP  RH WIND       PRES   REMARKS
MINNEAPOLIS    CLOUDY    27  20  75 N18       29.84R WCI  14
INTNL FALLS    MOCLDY     3  -5  69 E9        29.99S WCI -12
DULUTH         FLURRIES  18  12  77 NE10      29.92R WCI   6
RED WING       CLOUDY    30  21  69 E7        29.80R WCI  23
REDWOOD FALLS  CLOUDY    32  29  88 N9        29.83R WCI  24
MANKATO        CLOUDY    32  28  86 NE17      29.78R WCI  21
WORTHINGTON    CLOUDY    32  30  93 N16       29.78R WCI  21
FAIRMONT       CLOUDY    34  28  80 N15       29.74R WCI  24
$$

...SOUTHWEST WISCONSIN...


CITY           SKY/WX    TMP DP  RH WIND       PRES   REMARKS
LA CROSSE      CLOUDY    31  25  78 E12       29.78R WCI  22
PRAIRIE DU CHI CLOUDY    35  30  82 NE9       29.68R WCI  27
BOSCOBEL       CLOUDY    32  27  81 E13G24    29.73R WCI  22
LONE ROCK      CLOUDY    28  23  80 E21       29.76R WCI  15
PLATTEVILLE    CLOUDY    32  31  96 NE22      29.65R WCI  20
FORT MC COY    CLOUDY    27  23  84 E14       29.79R WCI  16
VIROQUA        CLOUDY    29  29 100 NE18G25   29.71R WCI  16
WIS DELLS      NOT AVBL
$$

...ELSEWHERE IN WISCONSIN...


CITY           SKY/WX    TMP DP  RH WIND       PRES   REMARKS
MILWAUKEE      LGT SNOW  29  24  82 NE22G32   29.77R WCI  15
MADISON        FLURRIES  26  21  81 NE21G26   29.76R WCI  12
GREEN BAY      MOCLDY    20  11  68 NE20G29   29.88R WCI   4
EAU CLAIRE     NOT AVBL
BLACK RVR FLS  CLOUDY    29  27  92 E14       29.79R WCI  18
MEDFORD        CLOUDY    17  11  77 NE13      29.81R WCI   3
WAUSAU         CLOUDY    18  10  71 E13G20    29.83R WCI   5
WIS RAPIDS     CLOUDY    21  11  65 NE14      29.83R WCI   8
MARSHFIELD     CLOUDY    24  17  74 NE14      29.80R WCI  12
RICE LAKE      CLOUDY    18  12  78 N13       29.88R WCI   4
$$

...NORTHEAST IOWA...


CITY           SKY/WX    TMP DP  RH WIND       PRES   REMARKS
DECORAH        FLURRIES  34  32  93 NE13      29.67R WCI  25
MASON CITY     LGT SNOW  33  31  92 NE18      29.68R FOG     WCI  22
CHARLES CITY   MIX PCPN  34  34 100 NE13      29.66R WCI  25
OELWEIN        CLOUDY    34  32  93 E16G23    29.62R WCI  23
$$

...ELSEWHERE IN IOWA...


CITY           SKY/WX    TMP DP  RH WIND       PRES   REMARKS
DES MOINES     CLOUDY    40  36  86 N7        29.59R
IOWA CITY      LGT RAIN  36  34  92 NE8       29.60R WCI  30
FORT DODGE     CLOUDY    36  32  87 N10       29.66R WCI  28
$$

...NORTHERN ILLINOIS...


CITY           SKY/WX    TMP DP  RH WIND       PRES   REMARKS
CHICAGO-OHARE  CLOUDY    34  32  92 NE14      29.70R WCI  25
CHICAGO-MIDWAY CLOUDY    36  33  89 NE7       29.70R WCI  30
MOLINE         MIX PCPN  35  32  88 E12       29.60R WCI  27
ROCKFORD       CLOUDY    32  28  85 NE25G33   29.69S WCI  19
PEORIA         LGT RAIN  37  32  82 E3        29.59S
$$

NOTE: "FAIR" INDICATES FEW OR NO CLOUDS BELOW 12,000 FEET WITH NO
SIGNIFICANT WEATHER AND/OR OBSTRUCTIONS TO VISIBILITY. WIND
SPEEDS ARE IN MILES-PER-HOUR.



USA.gov is the U.S. government's official web portal to all federal, state and local government web resources and services.